Torna al catalogo

COSMOS 2323

GLONASS

AttivoNavigazioneMEO
NORAD 23736·PAYLOAD·🇷🇺 Russia

Lanciato Dec 14, 1995 da Baikonur Cosmodrome

Loading…

Prossimi Passaggi (prossime 24 ore)

TLE

AggiornatoSource: Space-Track

Epoca: Sep 10, 2026, 23:38 UTC

1 23736U 95068C   26253.98504218 -.00000007  00000-0  00000-0 0  9992
2 23736  65.4640 199.8500 0009499 191.5936 354.6234  2.13104168239035

Traccia COSMOS 2323 in tempo reale con AllMySat

Download on the App Store